Date String (YYYY-MM-DD hh:mm:ss) UTC,Instrument flags,absolute air pressure of the measurement (hPa),sample flow rate (lpm),inlet stack bypass flow (lpm),air temperature of the measurement (°C),ambient temperature measured by the external sensor (°C),aerosol sample conditioner tube jacket temperature (°C),OPC LED temperature (°C),internal box temperature (°C),relative humidity of the measurement (%),span deviation,mass concentration of particles derived from Lorenz-Mie calculation of OPC scattering (μg/m³),mass concentration of particles derived from Lorenz-Mie calculation of OPC scattering (μg/m³),mass concentration of particles derived from Lorenz-Mie calculation of OPC scattering (μg/m³)
DateTimeUTC,F1_M11,P_M11,Q1_M11,Q2_M11,T1_M11,T2_M11,T3_M11,T4_M11,T5_M11,U1_M11,ZSPAN_M11,X0_M11,X2_M11,X1_M11
2023-10-19 14:00:00,SystemResetWarning,0835.0,5.00,000.00,028.9,027.5,000.0,037.3,030.6,13.3,0000.0,0009.06,0002.67,0001.46
2023-10-19 14:01:00,SystemResetWarning,0835.0,5.01,000.00,028.9,027.5,000.0,037.3,030.6,13.2,0000.0,0009.01,0002.66,0001.45
2023-10-19 14:02:00,SystemResetWarning,0835.0,5.00,000.00,028.9,027.5,000.0,037.3,030.6,13.3,0000.0,0009.13,0002.75,0001.49
2023-10-19 14:03:00,SystemResetWarning,0835.0,4.99,000.00,028.9,027.5,000.0,037.3,030.6,13.3,0000.0,0009.66,0002.76,0001.51
2023-10-19 14:04:00,SystemResetWarning,0835.0,5.00,000.00,028.9,027.5,000.0,037.3,030.6,13.2,0000.0,0009.18,0002.70,0001.50
2023-10-19 14:05:00,SystemResetWarning,0834.9,5.00,000.00,028.9,027.5,000.0,037.3,030.6,13.2,0000.0,0008.97,0002.63,0001.49
2023-10-19 14:06:00,SystemResetWarning,0835.0,5.00,000.00,028.9,027.5,000.0,037.3,030.6,13.3,0000.0,0009.08,0002.65,0001.51
2023-10-19 14:07:00,SystemResetWarning,0835.0,5.01,000.00,028.9,027.5,000.0,037.3,030.6,13.2,0000.0,0009.50,0002.71,0001.53
2023-10-19 14:08:00,SystemResetWarning,0835.0,5.00,000.00,029.0,027.5,000.0,037.4,030.6,13.3,0000.0,0010.02,0002.73,0001.53
2023-10-19 14:09:00,SystemResetWarning,0835.1,5.01,000.00,029.0,027.6,000.0,037.3,030.6,13.3,0000.0,0009.48,0002.76,0001.55
2023-10-19 14:10:00,SystemResetWarning,0834.9,4.99,000.00,029.0,027.6,000.0,037.4,030.6,13.2,0000.0,0008.83,0002.84,0001.56
2023-10-19 14:11:00,SystemResetWarning,0834.6,5.00,000.00,029.0,027.6,000.0,037.4,030.6,13.2,0000.0,0008.72,0002.82,0001.58
2023-10-19 14:12:00,SystemResetWarning,0834.7,5.00,000.00,029.0,027.6,000.0,037.4,030.6,13.1,0000.0,0008.56,0002.79,0001.61
2023-10-19 14:13:00,SystemResetWarning,0834.6,5.00,000.00,029.0,027.6,000.0,037.4,030.7,13.1,0000.0,0008.27,0002.83,0001.62
2023-10-19 14:14:00,SystemResetWarning,0834.9,5.00,000.00,029.0,027.6,000.0,037.4,030.7,13.2,0000.0,0007.76,0002.87,0001.63
2023-10-19 14:15:00,SystemResetWarning,0835.2,5.00,000.00,029.0,027.6,000.0,037.4,030.7,13.3,0000.0,0008.40,0002.96,0001.63
2023-10-19 14:16:00,SystemResetWarning,0835.1,5.00,000.00,029.0,027.6,000.0,037.4,030.7,13.2,0000.0,0008.79,0003.00,0001.63
2023-10-19 14:17:00,SystemResetWarning,0834.8,5.00,000.00,029.0,027.6,000.0,037.4,030.7,13.2,0000.0,0008.60,0002.95,0001.62
2023-10-19 14:18:00,SystemResetWarning,0834.7,5.00,000.00,029.0,027.7,000.0,037.4,030.7,13.3,0000.0,0009.22,0002.91,0001.63
2023-10-19 14:19:00,SystemResetWarning,0834.7,5.01,000.00,029.1,027.7,000.0,037.4,030.7,13.2,0000.0,0009.14,0002.92,0001.64
2023-10-19 14:20:00,SystemResetWarning,0834.7,5.00,000.00,029.1,027.7,000.0,037.4,030.7,13.1,0000.0,0011.08,0003.05,0001.66
2023-10-19 14:21:00,SystemResetWarning,0834.7,5.00,000.00,029.1,027.7,000.0,037.5,030.7,13.2,0000.0,0012.14,0003.02,0001.65
2023-10-19 14:22:00,SystemResetWarning,0834.7,5.00,000.00,029.1,027.8,000.0,037.5,030.7,13.2,0000.0,0012.24,0003.01,0001.66
2023-10-19 14:23:00,SystemResetWarning,0834.7,4.98,000.00,029.1,027.8,000.0,037.5,030.8,13.1,0000.0,0012.35,0003.04,0001.65
2023-10-19 14:24:00,SystemResetWarning,0835.1,5.01,000.00,029.1,027.8,000.0,037.5,030.8,13.1,0000.0,0012.72,0003.04,0001.65
2023-10-19 14:25:00,SystemResetWarning,0835.0,5.01,000.00,029.1,027.8,000.0,037.5,030.8,13.1,0000.0,0013.33,0002.96,0001.64
2023-10-19 14:26:00,SystemResetWarning,0834.8,4.98,000.00,029.1,027.8,000.0,037.5,030.8,13.1,0000.0,0013.03,0002.89,0001.66
2023-10-19 14:27:00,SystemResetWarning,0834.7,5.00,000.00,029.2,027.8,000.0,037.5,030.8,13.0,0000.0,0013.15,0002.95,0001.69
2023-10-19 14:28:00,SystemResetWarning,0834.9,5.00,000.00,029.2,027.9,000.0,037.5,030.8,13.0,0000.0,0013.31,0003.10,0001.72
2023-10-19 14:29:00,SystemResetWarning,0834.7,5.01,000.00,029.2,027.9,000.0,037.6,030.8,13.0,0000.0,0012.63,0003.14,0001.74
2023-10-19 14:30:00,SystemResetWarning,0834.7,4.98,000.00,029.2,027.9,000.0,037.6,030.8,13.1,0000.0,0012.35,0003.18,0001.75
2023-10-19 14:31:00,SystemResetWarning,0834.7,5.00,000.00,029.2,027.9,000.0,037.6,030.8,13.1,0000.0,0010.39,0003.13,0001.74
2023-10-19 14:32:00,SystemResetWarning,0834.7,4.99,000.00,029.2,027.9,000.0,037.6,030.9,13.2,0000.0,0009.50,0003.17,0001.76
2023-10-19 14:33:00,SystemResetWarning,0834.7,5.01,000.00,029.2,027.9,000.0,037.6,030.9,13.6,0000.0,0009.38,0003.17,0001.78
2023-10-19 14:34:00,SystemResetWarning,0834.8,5.01,000.00,029.2,028.0,000.0,037.6,030.9,13.6,0000.0,0009.46,0003.17,0001.78
2023-10-19 14:35:00,SystemResetWarning,0834.9,4.98,000.00,029.3,028.0,000.0,037.6,030.9,13.5,0000.0,0009.65,0003.15,0001.79
2023-10-19 14:36:00,SystemResetWarning,0835.4,5.00,000.00,029.3,028.0,000.0,037.6,030.9,13.5,0000.0,0009.74,0003.22,0001.81
2023-10-19 14:37:00,SystemResetWarning,0835.2,5.01,000.00,029.3,028.0,000.0,037.7,030.9,13.4,0000.0,0009.50,0003.25,0001.83
2023-10-19 14:38:00,SystemResetWarning,0835.3,5.01,000.00,029.3,028.0,000.0,037.7,030.9,13.4,0000.0,0009.07,0003.23,0001.83
2023-10-19 14:39:00,SystemResetWarning,0835.1,5.01,000.00,029.3,028.0,000.0,037.7,030.9,13.4,0000.0,0009.00,0003.19,0001.82
2023-10-19 14:40:00,SystemResetWarning,0835.3,5.00,000.00,029.3,028.1,000.0,037.7,031.0,13.1,0000.0,0009.27,0003.17,0001.83
2023-10-19 14:41:00,SystemResetWarning,0835.4,5.00,000.00,029.3,028.1,000.0,037.7,031.0,13.2,0000.0,0010.17,0003.18,0001.83
2023-10-19 14:42:00,SystemResetWarning,0835.3,4.99,000.00,029.4,028.1,000.0,037.7,031.0,13.2,0000.0,0010.81,0003.21,0001.85
2023-10-19 14:43:00,SystemResetWarning,0835.4,5.01,000.00,029.4,028.1,000.0,037.7,031.0,13.2,0000.0,0011.73,0003.26,0001.86
2023-10-19 14:44:00,SystemResetWarning,0835.4,5.01,000.00,029.4,028.1,000.0,037.7,031.0,13.2,0000.0,0012.63,0003.30,0001.86
2023-10-19 14:45:00,SystemResetWarning,0835.4,5.00,000.00,029.4,028.1,000.0,037.8,031.0,13.2,0000.0,0012.66,0003.31,0001.85
2023-10-19 14:46:00,SystemResetWarning,0835.1,5.00,000.00,029.4,028.1,000.0,037.8,031.0,13.2,0000.0,0012.49,0003.33,0001.85
2023-10-19 14:47:00,SystemResetWarning,0834.9,5.00,000.00,029.4,028.2,000.0,037.8,031.1,13.4,0000.0,0012.06,0003.31,0001.84
2023-10-19 14:48:00,SystemResetWarning,0834.9,4.99,000.00,029.4,028.2,000.0,037.8,031.1,13.7,0000.0,0011.84,0003.30,0001.83
2023-10-19 14:49:00,SystemResetWarning,0834.9,5.01,000.00,029.5,028.2,000.0,037.8,031.1,13.6,0000.0,0012.15,0003.33,0001.84
2023-10-19 14:50:00,SystemResetWarning,0834.8,5.01,000.00,029.5,028.2,000.0,037.8,031.1,13.2,0000.0,0012.32,0003.32,0001.84
2023-10-19 14:51:00,SystemResetWarning,0834.9,5.00,000.00,029.5,028.3,000.0,037.9,031.1,13.1,0000.0,0012.23,0003.35,0001.84
2023-10-19 14:52:00,SystemResetWarning,0834.9,4.98,000.00,029.5,028.3,000.0,037.9,031.1,13.2,0000.0,0011.47,0003.31,0001.84
2023-10-19 14:53:00,SystemResetWarning,0834.9,5.01,000.00,029.5,028.3,000.0,037.9,031.1,13.2,0000.0,0011.54,0003.29,0001.84
2023-10-19 14:54:00,SystemResetWarning,0835.0,5.01,000.00,029.5,028.3,000.0,037.9,031.2,13.6,0000.0,0010.33,0003.23,0001.83
2023-10-19 14:55:00,SystemResetWarning,0835.0,4.99,000.00,029.5,028.3,000.0,037.9,031.2,13.8,0000.0,0009.94,0003.22,0001.85
2023-10-19 14:56:00,SystemResetWarning,0834.9,4.99,000.00,029.6,028.3,000.0,037.9,031.2,14.0,0000.0,0010.27,0003.24,0001.85
2023-10-19 14:57:00,SystemResetWarning,0835.0,5.00,000.00,029.6,028.3,000.0,037.9,031.2,13.9,0000.0,0010.35,0003.27,0001.85
2023-10-19 14:58:00,SystemResetWarning,0835.0,5.02,000.00,029.6,028.4,000.0,037.9,031.2,13.9,0000.0,0010.43,0003.25,0001.85
2023-10-19 14:59:00,SystemResetWarning,0835.0,5.00,000.00,029.6,028.4,000.0,038.0,031.2,14.0,0000.0,0010.46,0003.26,0001.85
